W4OTS Weather Reports


Display with metric or nautical units.
time (UTC)temp
F
wind
direction
speed
MPH
gust
MPH
rain 1hr
in
rain 24hr
in
rain mn
in
humidity
%
barometer
mb
20260906052259 74 148 0.0 0.0 0.00 0.00 0.00 95 1015.2
20260906051756 74 148 0.0 0.0 0.00 0.00 0.00 95 1015.1
20260906051255 74 146 0.0 0.0 0.00 0.00 0.00 96 1015.4
20260906050750 74 147 0.0 0.0 0.00 0.00 0.00 96 1015.3
20260906050246 74 148 0.0 0.0 0.00 0.00 0.00 96 1015.4
20260906045744 74 148 0.0 0.0 0.00 0.00 0.00 95 1015.2
20260906045239 74 148 0.0 0.0 0.00 0.00 0.00 95 1015.3
20260906044735 74 147 0.0 0.0 0.00 0.00 0.00 95 1015.4
20260906044230 74 147 0.0 0.0 0.00 0.00 0.00 95 1015.4
20260906043726 74 147 0.0 0.0 0.00 0.00 0.00 95 1015.3
20260906043222 73 145 0.0 0.0 0.00 0.00 0.00 96 1015.3
20260906042721 73 147 0.0 0.0 0.00 0.00 0.00 97 1015.5
20260906042220 73 146 0.0 0.0 0.00 0.00 0.00 98 1015.4
20260906041716 73 148 0.0 0.0 0.00 0.00 0.00 97 1015.4
20260906041211 74 148 0.0 0.0 0.00 0.00 0.00 97 1015.4
20260906040707 74 148 0.0 0.0 0.00 0.00 0.00 97 1015.6
20260906040202 74 148 0.0 0.0 0.00 0.00 0.00 97 1015.8
20260906035657 74 148 0.0 0.0 0.00 0.00 0.00 97 1015.6
20260906035153 74 148 0.0 0.0 0.00 0.00 0.00 98 1015.6
20260906034647 74 158 0.0 0.0 0.00 0.00 0.00 98 1015.6
20260906034142 73 192 0.0 0.0 0.00 0.00 0.00 99 1015.7
20260906033638 73 211 0.0 0.0 0.00 0.00 0.00 99 1015.6
20260906033138 73 245 0.0 0.0 0.00 0.00 0.00 99 1015.6
20260906032635 73 244 0.0 0.0 0.00 0.00 0.00 99 1015.5
20260906032134 73 247 0.0 0.0 0.00 0.00 0.00 99 1015.5
20260906031630 73 242 0.0 0.0 0.00 0.00 0.00 99 1015.9
20260906031125 73 242 0.0 0.0 0.00 0.00 0.00 99 1015.5
20260906030624 74 245 0.0 0.0 0.00 0.00 0.00 99 1015.6
20260906030120 74 245 0.0 0.0 0.00 0.00 0.00 98 1015.5
20260906025619 74 245 0.0 0.0 0.00 0.00 0.00 98 1015.4
20260906025118 74 243 0.0 0.0 0.00 0.00 0.00 98 1015.5
20260906024613 74 244 0.0 0.0 0.00 0.00 0.00 97 1015.6
20260906024107 74 248 0.0 1.0 0.00 0.00 0.00 97 1015.2
20260906023603 74 248 0.0 1.0 0.00 0.00 0.00 98 1015.1
20260906023057 73 249 0.0 0.0 0.00 0.00 0.00 99 1015.3
20260906022553 73 249 0.0 0.0 0.00 0.00 0.00 98 1015.4
20260906022048 73 253 0.0 0.0 0.00 0.00 0.00 98 1015.2
20260906021544 73 258 0.0 0.0 0.00 0.00 0.00 98 1015.5
20260906021043 73 244 0.0 0.0 0.00 0.00 0.00 98 1015.2
20260906020543 74 236 0.0 0.0 0.00 0.00 0.00 97 1015.2
20260906020042 74 246 0.0 0.0 0.00 0.00 0.00 97 1015.3
20260906015541 74 251 0.0 0.0 0.00 0.00 0.00 97 1015.3
20260906015036 74 245 0.0 0.0 0.00 0.00 0.00 97 1015.3
20260906014531 74 242 0.0 0.0 0.00 0.00 0.00 97 1015.3
20260906014026 74 233 0.0 0.0 0.00 0.00 0.00 96 1015.2
20260906013522 74 246 0.0 0.0 0.00 0.00 0.00 95 1015.2
20260906013017 75 248 0.0 0.0 0.00 0.00 0.00 95 1015.3
20260906012512 75 249 0.0 0.0 0.00 0.00 0.00 94 1015.1
20260906012011 76 249 0.0 0.0 0.00 0.00 0.00 93 1015.1
20260906011508 76 250 0.0 0.0 0.00 0.00 0.00 92 1014.9
20260906011002 76 258 0.0 0.0 0.00 0.00 0.00 92 1014.9
20260906010457 76 291 1.0 1.0 0.00 0.00 0.00 92 1014.9
20260906005954 76 264 0.0 1.0 0.00 0.00 0.00 92 1014.9
20260906005453 76 261 0.0 0.0 0.00 0.00 0.00 92 1015.0
20260906004951 77 277 1.0 1.0 0.00 0.00 0.00 92 1014.9
20260906004451 77 255 0.0 0.0 0.00 0.00 0.00 91 1014.7
20260906003941 77 256 0.0 0.0 0.00 0.00 0.00 91 1014.5
20260906003436 77 244 0.0 0.0 0.00 0.00 0.00 91 1014.5
20260906002931 77 269 1.0 1.0 0.00 0.00 0.00 91 1014.5
20260906002431 77 254 0.0 0.0 0.00 0.00 0.00 91 1014.4
20260906001926 77 247 0.0 0.0 0.00 0.00 0.00 90 1014.3
20260906001421 77 246 0.0 0.0 0.00 0.00 0.00 89 1014.3
20260906000916 78 253 0.0 0.0 0.00 0.00 0.00 88 1014.5
20260906000406 78 243 0.0 0.0 0.00 0.00 0.00 87 1014.2
20260905235901 79 245 0.0 0.0 0.00 0.00 0.00 86 1014.3
20260905235355 79 244 0.0 0.0 0.00 0.00 0.00 84 1013.7
20260905234850 80 248 0.0 0.0 0.00 0.00 0.00 84 1014.1
20260905234346 80 252 0.0 0.0 0.00 0.00 0.00 83 1013.8
20260905233841 80 250 0.0 0.0 0.00 0.00 0.00 83 1013.6
20260905233336 81 255 0.0 0.0 0.00 0.00 0.00 81 1014.0
20260905232835 81 248 0.0 0.0 0.00 0.00 0.00 81 1014.0
20260905232331 82 253 0.0 0.0 0.00 0.00 0.00 80 1014.0
20260905231826 82 266 0.0 1.0 0.00 0.00 0.00 79 1013.8
20260905231321 82 249 0.0 0.0 0.00 0.00 0.00 78 1013.9
20260905230818 82 249 0.0 0.0 0.00 0.00 0.00 76 1013.9
20260905230316 83 236 0.0 0.0 0.00 0.00 0.00 77 1013.8
20260905225815 83 239 0.0 0.0 0.00 0.00 0.00 76 1014.1
20260905225310 83 254 0.0 0.0 0.00 0.00 0.00 76 1013.7
20260905224810 83 253 0.0 0.0 0.00 0.00 0.00 75 1013.6
20260905224306 83 247 0.0 0.0 0.00 0.00 0.00 75 1013.6
20260905223801 84 249 0.0 0.0 0.00 0.00 0.00 74 1013.6
20260905223258 83 247 0.0 0.0 0.00 0.00 0.00 74 1013.7
20260905222753 84 257 1.0 1.0 0.00 0.00 0.00 74 1013.6
20260905222252 84 267 1.0 1.0 0.00 0.00 0.00 75 1013.8
20260905221748 84 249 0.0 1.0 0.00 0.00 0.00 75 1013.7
20260905221245 84 247 0.0 0.0 0.00 0.00 0.00 75 1013.8
20260905220740 84 250 0.0 0.0 0.00 0.00 0.00 74 1013.5
20260905220236 84 276 2.0 2.0 0.00 0.00 0.00 73 1013.9
20260905215736 84 251 0.0 0.0 0.00 0.00 0.00 73 1013.9
20260905215232 84 246 0.0 0.0 0.00 0.00 0.00 72 1014.0
20260905214727 84 296 0.0 1.0 0.00 0.00 0.00 72 1014.2
20260905214223 84 251 0.0 0.0 0.00 0.00 0.00 73 1014.2
20260905213718 84 251 0.0 0.0 0.00 0.00 0.00 73 1014.3
20260905213214 84 278 1.0 1.0 0.00 0.00 0.00 74 1014.5
20260905212709 84 251 0.0 1.0 0.00 0.00 0.00 73 1014.6
20260905212208 84 247 0.0 0.0 0.00 0.00 0.00 73 1014.6
20260905211703 83 235 0.0 0.0 0.00 0.00 0.00 72 1014.4
20260905211158 83 317 2.0 2.0 0.00 0.00 0.00 71 1014.3
20260905210655 83 258 1.0 1.0 0.00 0.00 0.00 73 1014.2
20260905210154 82 283 1.0 1.0 0.00 0.00 0.00 75 1014.0
20260905205653 82 248 0.0 0.0 0.00 0.00 0.00 76 1014.3
20260905205153 82 247 0.0 0.0 0.00 0.00 0.00 77 1014.2
20260905204653 81 260 1.0 1.0 0.00 0.00 0.00 80 1014.5
20260905204148 80 249 0.0 0.0 0.00 0.00 0.00 80 1014.6
20260905203643 80 235 1.0 1.0 0.00 0.00 0.00 82 1014.7
20260905203138 79 223 1.0 2.0 0.00 0.00 0.00 83 1014.6
20260905202634 79 244 0.0 0.0 0.00 0.00 0.00 83 1014.7
20260905202129 79 223 1.0 1.0 0.00 0.00 0.00 85 1014.9
20260905201624 79 243 0.0 1.0 0.00 0.00 0.00 84 1014.6
20260905201124 79 245 0.0 0.0 0.00 0.00 0.00 84 1014.7
20260905200620 79 237 0.0 0.0 0.00 0.00 0.00 84 1014.9
20260905200115 79 240 0.0 1.0 0.00 0.00 0.00 83 1014.9
20260905195613 79 226 1.0 1.0 0.00 0.00 0.00 82 1014.9
20260905195108 80 228 1.0 1.0 0.00 0.00 0.00 81 1015.3
20260905194603 80 232 0.0 0.0 0.00 0.00 0.00 80 1015.0
20260905194102 81 236 0.0 1.0 0.00 0.00 0.00 79 1015.2
20260905193557 81 241 0.0 0.0 0.00 0.00 0.00 78 1015.0
20260905193052 81 333 1.0 1.0 0.00 0.00 0.00 77 1015.0
20260905192548 81 240 0.0 1.0 0.00 0.00 0.00 78 1015.2
20260905192044 81 231 1.0 1.0 0.00 0.00 0.00 76 1015.2
20260905191542 82 241 1.0 1.0 0.00 0.00 0.00 71 1015.2
20260905191042 82 245 1.0 1.0 0.00 0.00 0.00 68 1015.2
20260905190540 82 250 1.0 1.0 0.00 0.00 0.00 68 1014.7
20260905190034 82 252 0.0 0.0 0.00 0.00 0.00 69 1013.9
20260905185533 82 244 0.0 0.0 0.00 0.00 0.00 67 1014.3
20260905185032 83 225 1.0 1.0 0.00 0.00 0.00 69 1014.5
20260905184527 83 274 1.0 1.0 0.00 0.00 0.00 67 1014.5
20260905184025 84 213 0.0 1.0 0.00 0.00 0.00 63 1014.3
20260905183520 84 251 1.0 2.0 0.00 0.00 0.00 63 1014.7
20260905183015 85 228 0.0 1.0 0.00 0.00 0.00 63 1014.7
20260905182515 86 309 1.0 1.0 0.00 0.00 0.00 63 1014.7
20260905182009 87 78 2.0 5.0 0.00 0.00 0.00 68 1015.0
20260905181504 87 326 1.0 1.0 0.00 0.00 0.00 69 1014.7
20260905181003 88 271 1.0 1.0 0.00 0.00 0.00 67 1015.1
20260905180458 89 258 0.0 1.0 0.00 0.00 0.00 65 1015.2
20260905175953 91 308 2.0 2.0 0.00 0.00 0.00 64 1015.6
20260905175453 92 246 1.0 1.0 0.00 0.00 0.00 62 1015.2
20260905174949 92 283 1.0 1.0 0.00 0.00 0.00 61 1015.2
20260905174443 93 244 1.0 1.0 0.00 0.00 0.00 59 1015.4
20260905173939 94 248 2.0 2.0 0.00 0.00 0.00 58 1015.3
20260905173436 94 278 2.0 2.0 0.00 0.00 0.00 58 1015.8
20260905172931 95 247 2.0 2.0 0.00 0.00 0.00 57 1016.0
20260905172428 95 298 1.0 2.0 0.00 0.00 0.00 57 1015.8
20260905171925 95 237 0.0 0.0 0.00 0.00 0.00 57 1015.8
20260905171421 96 78 2.0 3.0 0.00 0.00 0.00 54 1015.9
20260905170917 95 224 1.0 2.0 0.00 0.00 0.00 57 1015.9
20260905170413 95 234 1.0 2.0 0.00 0.00 0.00 58 1016.0
20260905165912 96 289 2.0 2.0 0.00 0.00 0.00 58 1015.8
20260905165407 97 237 2.0 2.0 0.00 0.00 0.00 57 1016.0
20260905164903 96 316 1.0 1.0 0.00 0.00 0.00 60 1015.9
20260905164357 95 242 1.0 2.0 0.00 0.00 0.00 57 1015.9
20260905163852 96 335 2.0 2.0 0.00 0.00 0.00 55 1015.9
20260905163349 95 27 3.0 3.0 0.00 0.00 0.00 55 1016.1
20260905162844 94 293 2.0 2.0 0.00 0.00 0.00 60 1016.1
20260905162344 94 243 1.0 1.0 0.00 0.00 0.00 59 1016.3
20260905161839 94 247 0.0 0.0 0.00 0.00 0.00 61 1016.3
20260905161338 94 246 0.0 0.0 0.00 0.00 0.00 61 1016.3
20260905160836 95 244 1.0 1.0 0.00 0.00 0.00 58 1016.7
20260905160331 95 255 0.0 1.0 0.00 0.00 0.00 59 1016.4
20260905155825 94 242 1.0 2.0 0.00 0.00 0.00 60 1016.7
20260905155325 94 290 0.0 0.0 0.00 0.00 0.00 61 1016.6
20260905154819 93 258 2.0 2.0 0.00 0.00 0.00 64 1016.6
20260905154315 94 246 1.0 1.0 0.00 0.00 0.00 64 1016.7
20260905153810 94 323 0.0 0.0 0.00 0.00 0.00 64 1016.6
20260905153306 93 263 1.0 1.0 0.00 0.00 0.00 68 1016.6
20260905152800 92 168 1.0 1.0 0.00 0.00 0.00 67 1016.5
20260905152259 92 207 3.0 3.0 0.00 0.00 0.00 69 1016.7
20260905151800 92 243 0.0 1.0 0.00 0.00 0.00 74 1016.7
20260905151255 92 239 1.0 1.0 0.00 0.00 0.00 72 1016.7
20260905150750 93 228 1.0 1.0 0.00 0.00 0.00 71 1016.5
20260905150250 91 293 1.0 1.0 0.00 0.00 0.00 73 1016.6
20260905145747 91 224 0.0 1.0 0.00 0.00 0.00 74 1016.5
20260905145242 90 251 0.0 0.0 0.00 0.00 0.00 74 1016.7
20260905144741 91 175 2.0 3.0 0.00 0.00 0.00 74 1016.6
20260905144237 90 261 0.0 1.0 0.00 0.00 0.00 75 1016.6
20260905143735 89 275 1.0 1.0 0.00 0.00 0.00 77 1016.5
20260905143235 88 252 0.0 1.0 0.00 0.00 0.00 79 1016.5
20260905142733 88 196 3.0 3.0 0.00 0.00 0.00 79 1016.6
20260905142228 88 247 1.0 1.0 0.00 0.00 0.00 80 1016.7
20260905141724 86 174 1.0 1.0 0.00 0.00 0.00 81 1016.6
20260905141220 86 256 1.0 2.0 0.00 0.00 0.00 82 1016.4
20260905140715 86 182 2.0 2.0 0.00 0.00 0.00 83 1016.7
20260905140209 87 231 2.0 2.0 0.00 0.00 0.00 82 1016.6
20260905135703 87 243 0.0 1.0 0.00 0.00 0.00 84 1016.6
20260905135200 85 224 0.0 1.0 0.00 0.00 0.00 85 1016.6
20260905134659 85 242 0.0 0.0 0.00 0.00 0.00 85 1016.6
20260905134158 84 241 0.0 1.0 0.00 0.00 0.00 87 1016.8
20260905133654 82 201 1.0 1.0 0.00 0.00 0.00 88 1016.9
20260905133154 81 247 0.0 0.0 0.00 0.00 0.00 91 1016.7
20260905132653 81 250 0.0 0.0 0.00 0.00 0.00 91 1016.6
20260905132148 80 253 0.0 0.0 0.00 0.00 0.00 92 1016.9
20260905131643 80 249 0.0 0.0 0.00 0.00 0.00 92 1016.9
20260905131138 80 247 0.0 0.0 0.00 0.00 0.00 92 1016.7
20260905130633 79 247 0.0 0.0 0.00 0.00 0.00 93 1016.9
20260905130133 79 250 0.0 0.0 0.00 0.00 0.00 94 1016.8
20260905125627 78 252 0.0 0.0 0.00 0.00 0.00 95 1016.9
20260905125123 78 249 0.0 0.0 0.00 0.00 0.00 96 1016.9
20260905124619 77 251 0.0 0.0 0.00 0.00 0.00 96 1016.9
20260905124115 77 250 0.0 0.0 0.00 0.00 0.00 97 1016.9
20260905123609 77 249 0.0 0.0 0.00 0.00 0.00 98 1016.9
20260905123107 76 249 0.0 0.0 0.00 0.00 0.00 98 1016.8
20260905122601 76 249 0.0 0.0 0.00 0.00 0.00 98 1016.8
20260905122101 76 248 0.0 0.0 0.00 0.00 0.00 99 1016.7
20260905121555 75 248 0.0 0.0 0.00 0.00 0.00 99 1016.9
20260905121051 75 248 0.0 0.0 0.00 0.00 0.00 99 1016.8
20260905120550 75 248 0.0 0.0 0.00 0.00 0.00 99 1017.0
20260905120045 74 248 0.0 0.0 0.00 0.00 0.00 99 1016.9
20260905115544 74 248 0.0 0.0 0.00 0.00 0.00 99 1017.0
20260905115039 74 244 0.0 0.0 0.00 0.00 0.00 99 1016.8
20260905114538 74 245 0.0 0.0 0.00 0.00 0.00 99 1016.6
20260905114037 74 250 0.0 0.0 0.00 0.00 0.00 99 1016.6
20260905113533 73 252 0.0 0.0 0.00 0.00 0.00 99 1016.6
20260905113028 73 256 0.0 0.0 0.00 0.00 0.00 99 1016.4
20260905112523 73 252 0.0 0.0 0.00 0.00 0.00 99 1016.5
20260905112019 73 256 0.0 0.0 0.00 0.00 0.00 99 1016.3
20260905111513 73 249 0.0 0.0 0.00 0.00 0.00 99 1016.3
20260905111013 73 255 0.0 1.0 0.00 0.00 0.00 99 1016.1
20260905110512 73 264 1.0 1.0 0.00 0.00 0.00 99 1016.1
20260905110007 73 252 0.0 1.0 0.00 0.00 0.00 99 1016.2
20260905105501 73 271 1.0 1.0 0.00 0.00 0.00 99 1016.0
20260905105001 73 260 1.0 1.0 0.00 0.00 0.00 99 1016.0
20260905104457 73 254 0.0 0.0 0.00 0.00 0.00 99 1016.0
20260905103951 73 250 0.0 0.0 0.00 0.00 0.00 99 1015.9
20260905103446 74 247 0.0 0.0 0.00 0.00 0.00 99 1015.8
20260905102943 74 251 0.0 0.0 0.00 0.00 0.00 99 1016.0
20260905102438 73 256 1.0 1.0 0.00 0.00 0.00 99 1015.7
20260905101933 73 280 0.0 0.0 0.00 0.00 0.00 99 1015.8
20260905101432 73 275 0.0 0.0 0.00 0.00 0.00 99 1015.7
20260905100926 73 249 0.0 0.0 0.00 0.00 0.00 99 1015.8
20260905100422 73 250 0.0 0.0 0.00 0.00 0.00 99 1015.8
20260905095922 73 249 0.0 0.0 0.00 0.00 0.00 99 1015.8
20260905095422 73 248 0.0 0.0 0.00 0.00 0.00 99 1015.5
20260905094922 73 246 0.0 0.0 0.00 0.00 0.00 99 1015.6
20260905094418 73 250 0.0 0.0 0.00 0.00 0.00 99 1015.7
20260905093916 73 248 0.0 0.0 0.00 0.00 0.00 99 1015.8
20260905093412 73 245 0.0 0.0 0.00 0.00 0.00 99 1015.7
20260905092907 73 252 0.0 0.0 0.00 0.00 0.00 99 1015.7
20260905092402 73 249 0.0 0.0 0.00 0.00 0.00 99 1015.7
20260905091857 74 251 0.0 0.0 0.00 0.00 0.00 99 1015.5
20260905091357 74 251 0.0 0.0 0.00 0.00 0.00 99 1015.9
20260905090856 74 253 0.0 0.0 0.00 0.00 0.00 99 1015.8
20260905090352 74 256 0.0 0.0 0.00 0.00 0.00 99 1015.8
20260905085850 74 257 0.0 0.0 0.00 0.00 0.00 99 1015.7
20260905085345 74 250 0.0 0.0 0.00 0.00 0.00 99 1015.6
20260905084842 74 251 0.0 0.0 0.00 0.00 0.00 99 1015.6
20260905084340 74 252 0.0 0.0 0.00 0.00 0.00 99 1015.8
20260905083835 74 254 0.0 0.0 0.00 0.00 0.00 99 1015.8
20260905083331 75 258 0.0 0.0 0.00 0.00 0.00 99 1016.1
20260905082826 75 250 0.0 0.0 0.00 0.00 0.00 99 1015.8
20260905082322 75 246 0.0 0.0 0.00 0.00 0.00 99 1016.0
20260905081817 75 247 0.0 0.0 0.00 0.00 0.00 99 1016.0
20260905081312 75 247 0.0 0.0 0.00 0.00 0.00 99 1015.7
20260905080811 75 249 0.0 0.0 0.00 0.00 0.00 99 1015.8
20260905080306 75 248 0.0 0.0 0.00 0.00 0.00 99 1016.0
20260905075804 75 251 0.0 0.0 0.00 0.00 0.00 99 1016.2
20260905075259 75 250 0.0 0.0 0.00 0.00 0.00 99 1016.3
20260905074758 75 252 0.0 0.0 0.00 0.00 0.00 99 1016.2
20260905074254 75 249 0.0 0.0 0.00 0.00 0.00 99 1016.2
20260905073749 75 246 0.0 0.0 0.00 0.00 0.00 99 1016.3
20260905073244 75 257 0.0 0.0 0.00 0.00 0.00 99 1016.3
20260905072744 75 254 0.0 0.0 0.00 0.00 0.00 99 1016.3
20260905072239 75 258 0.0 0.0 0.00 0.00 0.00 99 1016.4
20260905071736 75 254 0.0 0.0 0.00 0.00 0.00 99 1016.6
20260905071232 75 250 0.0 0.0 0.00 0.00 0.00 99 1016.6
20260905070726 75 253 0.0 0.0 0.00 0.00 0.00 99 1016.6
20260905070223 75 250 0.0 0.0 0.00 0.00 0.00 99 1016.6
20260905065721 75 249 0.0 0.0 0.00 0.00 0.00 99 1016.6
20260905065215 75 250 0.0 0.0 0.00 0.00 0.00 99 1016.8
20260905064710 75 250 0.0 0.0 0.00 0.00 0.00 99 1016.7
20260905064206 75 250 0.0 0.0 0.00 0.00 0.00 99 1016.7
20260905063704 75 255 0.0 0.0 0.00 0.00 0.00 99 1017.0
20260905063201 75 250 0.0 0.0 0.00 0.00 0.00 99 1017.0
20260905062657 76 244 0.0 0.0 0.00 0.00 0.00 99 1016.9
20260905062156 76 249 0.0 0.0 0.00 0.00 0.00 99 1016.9
20260905061656 76 250 0.0 0.0 0.00 0.00 0.00 99 1017.0
20260905061150 76 250 0.0 0.0 0.00 0.00 0.00 99 1017.1
20260905060645 76 250 0.0 0.0 0.00 0.00 0.00 99 1017.3
20260905060142 76 250 0.0 0.0 0.00 0.00 0.00 99 1017.4
20260905055640 76 250 0.0 0.0 0.00 0.00 0.00 99 1017.4
20260905055136 76 250 0.0 0.0 0.00 0.00 0.00 98 1017.4
20260905054632 77 250 0.0 0.0 0.00 0.00 0.00 98 1017.5
20260905054127 77 255 0.0 0.0 0.00 0.00 0.00 98 1017.6
20260905053627 76 264 0.0 0.0 0.00 0.00 0.00 99 1017.6
20260905053122 77 262 0.0 0.0 0.00 0.00 0.00 99 1017.7
20260905052621 77 252 0.0 0.0 0.00 0.00 0.00 98 1017.7